Tracking 28790 objects as of 19-Apr-2024
HD Live streaming from Space Station
objects crossing your sky now

OPS 5712 (P/L 152)

Track OPS 5712 (P/L 152) now!
10-day predictions
OPS 5712 (P/L 152) is classified as:


NORAD ID: 2873
Int'l Code: 1967-053G
Perigee: 903.4 km
Apogee: 911.2 km
Inclination: 70.0 °
Period: 103.0 minutes
Semi major axis: 7278 km
RCS: 0.648 m2 (medium)
Launch date: May 31, 1967
Source: United States (US)
Launch site: AIR FORCE WESTERN TEST RANGE (AFWTR)
Your satellite tracking list
Your tracking list is empty




NASA's NSSDC Master Catalog

Two Line Element Set (TLE):
1 02873U 67053G   24109.91332044  .00000320  00000-0  26233-3 0  9997
2 02873  69.9742 306.1260 0005296 110.6867 352.1275 13.98163225898176
Source of the keplerian elements: AFSPC